This is the latest recevied weather packets stored in our database for station/object K7KAR-2. If no packets are shown the sender has not sent any weather packets the latest 10 day(s).
| Time | Temp. | Humidity | Pressure | Rain* | Wind** | Luminosity | Snow |
|---|---|---|---|---|---|---|---|
| 1777675623 | 21.67° C | 10% | 1016.5 hPa | 0 mm | - | 405 W/m² | - |
| 1777675322 | 22.22° C | 10% | 1016.1 hPa | 0 mm | - | 423 W/m² | - |
| 1777675018 | 22.22° C | 10% | 1016.3 hPa | 0 mm | - | 434 W/m² | - |
| 1777674715 | 21.67° C | 10% | 1016.4 hPa | 0 mm | - | 457 W/m² | - |
| 1777674411 | 22.78° C | 10% | 1016.3 hPa | 0 mm | - | 480 W/m² | - |
| 1777674109 | 22.22° C | 10% | 1016.4 hPa | 0 mm | - | 488 W/m² | - |
| 1777673804 | 21.67° C | 10% | 1016.3 hPa | 0 mm | - | 513 W/m² | - |
| 1777673496 | 21.67° C | 10% | 1016.4 hPa | 0 mm | - | 530 W/m² | - |
| 1777673194 | 21.67° C | 10% | 1016.7 hPa | 0 mm | - | 539 W/m² | - |
| 1777672891 | 21.67° C | 10% | 1016.6 hPa | 0 mm | - | 561 W/m² | - |
| 1777672588 | 21.11° C | 10% | 1016.7 hPa | 0 mm | - | 567 W/m² | - |
| 1777672283 | 21.11° C | 10% | 1017 hPa | 0 mm | - | 584 W/m² | - |
| 1777671978 | 20.56° C | 10% | 1016.7 hPa | 0 mm | - | 603 W/m² | - |
| 1777671674 | 21.11° C | 10% | 1016.9 hPa | 0 mm | - | 616 W/m² | - |
| 1777671371 | 21.67° C | 10% | 1016.8 hPa | 0 mm | - | 629 W/m² | - |
| 1777671067 | 21.11° C | 10% | 1016.9 hPa | 0 mm | - | 636 W/m² | - |
| 1777670764 | 20.56° C | 10% | 1017.1 hPa | 0 mm | - | 647 W/m² | - |
| 1777670461 | 20.56° C | 10% | 1017.1 hPa | 0 mm | - | 658 W/m² | - |
| 1777670157 | 20.56° C | 10% | 1017.2 hPa | 0 mm | - | 661 W/m² | - |
| 1777669855 | 20° C | 10% | 1017 hPa | 0 mm | - | 675 W/m² | - |
| 1777669551 | 20° C | 10% | 1017.2 hPa | 0 mm | - | 684 W/m² | - |
| 1777669248 | 20° C | 10% | 1017 hPa | 0 mm | - | 695 W/m² | - |
| 1777668944 | 20.56° C | 10% | 1017.6 hPa | 0 mm | - | 681 W/m² | - |
| 1777668642 | 20° C | 10% | 1017.5 hPa | 0 mm | - | 672 W/m² | - |
| 1777668338 | 20° C | 10% | 1017.4 hPa | 0 mm | - | 674 W/m² | - |
* Rain latest hour (hover to see other rain measurements)
** Current wind speed in m/s (hover to see current wind gust speed)